Flag for Germany Weather past 2 weeks in Westerland, Schleswig-Holstein, Germany

Now
52 °F

Overcast.


Feels Like: 51 °F
Forecast: 54 / 56 °F
Wind: 5 mph from Northwest

Location: List / Sylt

Current Time: Oct 23, 2014 at 5:08:00 AM

Latest Report: Oct 23, 2014 at 4:00 AM


Visibility: 25 mi

Pressure: 30.06 "Hg

Humidity: 69%

Dew point: 42 °F

Location of WesterlandLocation

Historic Weather in Westerland — Graph

°F

Westerland temperature yesterday

Maximum temperature yesterday: 54 °F (at 10:00 AM)
Minimum temperature yesterday: 52 °F (at 7:00 PM)
Average temperature yesterday: 53 °F

Past Weeks' High & Low Weather Summary

 TemperatureHumidityPressure
High63 °F (Oct 19, 1:00 AM)100% (Oct 18, 6:00 AM)30.06 "Hg (Oct 18, 6:00 AM)
Low51 °F (Oct 13, 9:00 PM)65% (Oct 8, 7:00 AM)29.23 "Hg (Oct 21, 6:00 PM)
Average56 °F88%29.74 "Hg
* Reported Oct 8 4:00 AM — Oct 23 4:00 AM, Westerland, Weather by CustomWeather, © 2014

Note: Actual official high and low records may vary slightly from our data, if they occured in-between our weather recording intervals... More about our weather records

Advertising

Westerland weather history for previous 24 hours

 ConditionsComfort  
Time TempWeatherWind HumidityBarometerVisibility
4:00 AM
Oct 23
52 °FOvercast.5 mph69%30.06 "Hg25 mi
3:00 AM53 °FOvercast.7 mph66%30.06 "Hg22 mi
2:00 AM53 °FOvercast.8 mph66%30.05 "Hg18 mi
1:00 AM53 °FOvercast.8 mph72%30.04 "Hg10 mi
12:00 AM53 °FOvercast.9 mph72%30.02 "Hg9 mi
10:00 PM
Oct 22
53 °FOvercast.10 mph75%30.00 "Hg12 mi
9:00 PM53 °FOvercast.14 mph74%29.97 "Hg11 mi
8:00 PM52 °FOvercast.15 mph82%29.95 "Hg14 mi
7:00 PM52 °FLow clouds.14 mph90%29.93 "Hg8 mi
6:00 PM53 °FOvercast.14 mph88%29.90 "Hg16 mi
4:00 PM53 °FOvercast.16 mph84%29.85 "Hg12 mi
3:00 PM53 °FLow clouds.18 mph87%29.81 "Hg7 mi
2:00 PM53 °FDrizzle. Low clouds.17 mph92%29.79 "Hg3 mi
1:00 PM53 °FLight freezing rain. Low clouds.17 mph95%29.77 "Hg2 mi
12:00 PM54 °FDrizzle. Low clouds.18 mph90%29.72 "Hg4 mi
10:00 AM54 °FDrizzle. Low clouds.18 mph92%29.64 "Hg6 mi
9:00 AM54 °FLight rain. Low clouds.18 mph94%29.59 "Hg2 mi
8:00 AM53 °FRain. Low clouds.18 mph95%29.54 "Hg1 mi
7:00 AM54 °FOvercast.9 mph92%29.47 "Hg13 mi
6:00 AM53 °FOvercast.7 mph93%29.44 "Hg12 mi
Weather by CustomWeather, © 2014

See weather overviewHow to use our weather pages